Home > Time Zones > World Clock > Weather > U.S.A. > Gary > Past weeks

Flag for U.S.A. Weather past 2 weeks in Gary, Indiana, U.S.A.

Now
7 °F

Clear.


Feels Like: 0 °F
Forecast: 11 / 28 °F
Wind: 3 mph from West

Location: Lansing Municipal Airport

Current Time: Mar 2, 2015 at 6:11:12 AM

Latest Report: Mar 2, 2015 at 5:15 AM


Visibility: 10 mi

Pressure: 30.46 "Hg

Humidity: 87%

Dew point: 4 °F

Location of GaryLocation

Historic Weather in Gary — Graph

°F

Gary temperature yesterday

Maximum temperature yesterday: 27 °F (at 2:35 PM)
Minimum temperature yesterday: 15 °F (at 5:35 AM)
Average temperature yesterday: 20 °F

Past Weeks' High & Low Weather Summary

 TemperatureHumidityPressure
High30 °F (Feb 21, 2:35 PM)95% (Mar 1, 6:35 AM)30.74 "Hg (Mar 1, 6:35 AM)
Low-12 °F (Feb 28, 6:55 AM)35% (Feb 23, 1:15 PM)29.72 "Hg (Feb 24, 4:55 PM)
Average12 °F66%30.26 "Hg
* Reported Feb 15 4:15 AM — Mar 2 4:55 AM, Gary, Weather by CustomWeather, © 2015

Note: Actual official high and low records may vary slightly from our data, if they occured in-between our weather recording intervals... More about our weather records

Advertising

Gary weather history for previous 24 hours

 ConditionsComfort  
Time TempWeatherWind HumidityBarometerVisibility
4:55 AM
Mon, Mar 2
9 °FClear.3 mph89%30.46 "Hg10 mi
4:35 AM8 °FClear.6 mph90%30.45 "Hg10 mi
4:15 AM5 °FClear.3 mph85%30.45 "Hg10 mi
3:55 AM5 °FClear.3 mph87%30.44 "Hg10 mi
3:35 AM6 °FClear.No wind88%30.43 "Hg10 mi
3:15 AM4 °FClear.No wind87%30.43 "Hg7 mi
2:55 AM7 °FClear.3 mph88%30.43 "Hg10 mi
2:35 AM9 °FClear.3 mph75%30.43 "Hg10 mi
2:15 AM15 °FClear.6 mph75%30.42 "Hg10 mi
1:55 AM17 °FClear.5 mph73%30.42 "Hg10 mi
1:35 AM17 °FClear.6 mph73%30.42 "Hg10 mi
1:15 AM17 °FClear.6 mph73%30.42 "Hg10 mi
12:55 AM17 °FClear.6 mph73%30.40 "Hg10 mi
12:35 AM17 °FClear.6 mph77%30.39 "Hg10 mi
12:15 AM17 °FClear.7 mph78%30.39 "Hg10 mi
11:55 PM
Sun, Mar 1
18 °FClear.8 mph77%30.38 "Hg10 mi
11:35 PM18 °FClear.9 mph79%30.37 "Hg10 mi
11:15 PM19 °FClear.10 mph79%30.37 "Hg10 mi
10:55 PM19 °FClear.13 mph79%30.36 "Hg10 mi
10:35 PM18 °FClear.10 mph81%30.36 "Hg10 mi
10:15 PM18 °FClear.8 mph80%30.36 "Hg10 mi
9:55 PM19 °FClear.7 mph79%30.34 "Hg10 mi
9:15 PM18 °FClear.8 mph80%30.33 "Hg10 mi
8:55 PM18 °FClear.7 mph79%30.32 "Hg10 mi
8:15 PM18 °FClear.8 mph80%30.31 "Hg10 mi
7:55 PM19 °FClear.8 mph79%30.32 "Hg10 mi
7:35 PM19 °FClear.9 mph79%30.31 "Hg10 mi
7:15 PM20 °FClear.9 mph79%30.31 "Hg10 mi
6:55 PM21 °FPassing clouds.9 mph78%30.31 "Hg10 mi
6:35 PM21 °FPassing clouds.13 mph77%30.30 "Hg10 mi
5:55 PM22 °FClear.10 mph76%30.29 "Hg10 mi
5:35 PM22 °FClear.12 mph75%30.28 "Hg10 mi
5:15 PM23 °FPassing clouds.12 mph76%30.28 "Hg10 mi
4:55 PM24 °FPassing clouds.14 mph76%30.29 "Hg10 mi
4:35 PM25 °FSunny.12 mph74%30.29 "Hg10 mi
4:15 PM24 °FScattered clouds.10 mph75%30.28 "Hg10 mi
3:55 PM25 °FPartly sunny.12 mph75%30.28 "Hg10 mi
3:15 PM26 °FPartly sunny.9 mph74%30.29 "Hg10 mi
2:55 PM25 °FPartly sunny.8 mph70%30.29 "Hg10 mi
2:35 PM27 °FMostly cloudy.8 mph70%30.30 "Hg10 mi
2:15 PM26 °FCloudy.8 mph73%30.31 "Hg10 mi
1:15 PM25 °FLight snow. Mostly cloudy.5 mph80%30.32 "Hg1 mi
12:55 PM24 °FLight snow. Mostly cloudy.6 mph82%30.33 "Hg2 mi
12:35 PM24 °FLight snow. More clouds than sun.3 mph83%30.33 "Hg2 mi
12:15 PM24 °FLight snow. Cloudy.3 mph84%30.34 "Hg2 mi
11:55 AM23 °FLight snow. More clouds than sun.No wind86%30.36 "Hg1 mi
11:15 AM22 °FLight snow. Overcast.No wind88%30.36 "Hg1 mi
10:55 AM22 °FLight snow. More clouds than sun.No wind89%30.37 "Hg1 mi
10:35 AM22 °FLight snow. Overcast.3 mph90%30.37 "Hg1 mi
10:15 AM21 °FLight snow. Overcast.No wind91%30.37 "Hg1 mi
9:55 AM20 °FLight snow. Mostly cloudy.No wind91%30.37 "Hg1 mi
9:35 AM20 °FLight snow. Mostly cloudy.No wind91%30.39 "Hg1 mi
9:15 AM20 °FLight snow. Overcast.No wind91%30.37 "Hg1 mi
8:55 AM20 °FLight snow. Mostly cloudy.No wind91%30.39 "Hg1 mi
8:35 AM19 °FLight snow. Cloudy.No wind91%30.39 "Hg1 mi
8:15 AM19 °FLight snow. Mostly cloudy.No wind89%30.39 "Hg5 mi
7:55 AM19 °FMore clouds than sun.No wind91%30.39 "Hg7 mi
7:35 AM18 °FPartly sunny.No wind92%30.39 "Hg7 mi
7:15 AM18 °FPartly sunny.No wind92%30.38 "Hg7 mi
6:55 AM18 °FOvercast.3 mph93%30.38 "Hg7 mi
6:35 AM17 °FScattered clouds.No wind95%30.38 "Hg7 mi
6:15 AM17 °FScattered clouds.No wind94%30.39 "Hg7 mi
Weather by CustomWeather, © 2015

See weather overviewHow to use our weather pages